Location: Unspecified
(51.0950°N, 12.9690°E)
Time: 00:30:15
(UTC+00:00)

VELOX 1 - Visible Passes

Search period start: 19 April 2024 00:00
Search period end: 29 April 2024 00:00
Orbit: 607 x 619 km, 98.4° (Epoch: 18 April)

Date Brightness Start Highest point End Pass type
(mag) Time Alt. Az. Time Alt. Az. Time Alt. Az.
19 Apr ? 19:19:14 10° NNE 19:23:35 81° ESE 19:27:55 10° SSW visible
19 Apr ? 20:56:22 10° NNW 20:58:56 16° NW 21:01:32 10° W visible
20 Apr ? 19:34:19 10° NNE 19:38:39 74° WNW 19:42:58 10° SSW visible
20 Apr ? 21:12:08 10° NNW 21:13:50 12° NW 21:15:32 10° WNW visible
21 Apr ? 19:49:27 10° N 19:53:41 54° WNW 19:57:54 10° SW visible
22 Apr ? 20:04:36 10° N 20:08:40 40° WNW 20:12:42 10° SW visible
23 Apr ? 20:19:49 10° N 20:23:36 30° WNW 20:27:22 10° SW visible
24 Apr ? 18:58:37 10° NNE 19:02:50 50° E 19:07:03 10° S visible
24 Apr ? 20:35:05 10° N 20:38:29 23° WNW 20:41:53 10° WSW visible
25 Apr ? 19:13:32 10° NNE 19:17:53 69° ESE 19:22:11 10° S visible
25 Apr ? 20:50:25 10° NNW 20:53:20 18° WNW 20:56:14 10° W visible
26 Apr ? 19:28:30 10° NNE 19:32:52 86° WNW 19:37:12 10° SSW visible
26 Apr ? 21:05:55 10° NNW 21:08:07 14° NW 21:10:20 10° W visible
27 Apr ? 19:43:30 10° N 19:47:49 63° WNW 19:52:05 10° SSW visible
27 Apr ? 21:21:57 10° NW 21:22:53 11° NW 21:23:49 10° WNW visible
28 Apr ? 19:58:33 10° N 20:02:42 46° WNW 20:06:50 10° SW visible
